SCP
0 0 0 -0 -0 -0 -0 -0 -0 -0 -0 -0 -0 -0 -0 -0 -0 -0 -0 -0 -0 -0 -0 0 0 0 0 0 0 0 0 0 0 0 0 -0 0 -0 -0 -0 -0 -0 -0
-0 -0 -0 -0 -0 -0 -0 -0 -0 -0 -0 -0 -0 -0 -0 -0 -0 -0 -0 -0 -0 -0 -0 -0 -0 -0 -0 -0 0 0 0 0 0 0 0 0 0 0 -0 0 0 -0 -0
-0 -0 -0 -0 -0 -0 -0 -0 -0 -0 -0 -0 -0 -0 -0 -0 -0 -0 -0 -0 -0 -0 -0 -0 -0 -0 -0 -0 0 0 0 0 0 0 0 0 0 0 0 0 0 0 0
0 0 0 -0 -0 -0 -0 -0 -0 -0 -0 -0 -0 -0 -0 -0 -0 -0 -0 -0 -0 -0 -0 -0 -0 -0 -0 -0 -0 -0 0 0 0 0 0 0 0 0 0 0 0 0 0
0 0 0 0 -0 -0 -0 -0 -0 -0 -0 -0 -0 -0 -0 -0 -0 -0 -0 -0 -0 0 -0 0 0 0 0 -0 -0 -0 -0 0 0 0 0 0 0 0 0 0 0 0 0
0 0 0 -0 0 -0 -0 -0 -0 -0 -0 -0 -0 -0 -0 -0 -0 0 0 0 0 0 0 0 0 0 0 0 0 0 0 0 0 0 0 0 0 0 0 0 0 0 0
0 0 0 0 0 0 0 0 0 -0 -0 0 0 0 0 0 0 0 0 0 0 0 0 0 0 0 0 0 0 0 0 0 0 0 0 0 0 0 0 0 0 0 0
0 0 0 0 0 0 0 0 0 0 0 0 0 0 0 0 0 0 0 0 0 0 0 0 0 0 0 0 0 0 0 0 0 0 0 0 0 0 0 0 0 0 0
0 0 0 0 0 0 0 0 0 0 0 0 0 0 0 0 0 0 0 0 0 0 0 0 0 0 0 0 0 -0 -0 -0 0 0 0 0 0 0 0 0 0 0 0
0 0 0 0 0 0 0 0 0 0 0 0 0 0 0 0 0 0 0 0 0 0 0 0 0 0 0 0 0 0 0 0 0 0 0 0 0 0 0 0 0 0 0
0 0 0 0 0 0 0 0 0 0 0 0 0 0 0 0 0 0 0 0 0 0 0 0 0 0 0 0 0 0 0 0 0 0 0 0 0 0 0 0 0 0 0
0 0 0 0 0 0 0 0 0 0 0 0 0 0 0 0 0 0 0 0 0 0 0 0 0 0 0 0 0 0 0 0 0 0 0 0 0 0 0 0 0 0 0
0 0 0 0 0 0 0 0 0 0 0 0 0 0 0 0 0 0 0 0 0 0 0 0 0 0 0 0 0 0 0 0 0 0 0 0 0 0 0 0 0 0 0
0 0 0 0 0 0 0 0 0 0 0 0 0 0 0 0 0 0 0 0 0 0 0 0 0 0 0 0 0 0 0 0 0 0 0 0 0 0 0 0 0 0 0
0 0 0 0 0 0 0 0 0 0 0 0 0 0 0 0 0 0 0 0 0 0 0 0 0 0 0 0 0 0 0 0 0 0 0 0 0 0 0 0 0 0 0
0 0 0 0 0 0 0 0 0 0 0 0 0 0 0 0 0 0 0 0 0 0 0 0 0 0 0 0 0 0 0 0 0 0 0 0 0 0 0 0 0 0 0
0 0 0 0 0 0 0 0 0 0 0 0 0 0 0 0 0 0 0 0 0 0 0 0 0 0 0 0 0 0 0 0 0 0 0 0 0 0 0 0 0 0 0
0 0 0 0 0 0 0 0 0 0 0 0 0 0 0 0 0 0 0 0 0 0 0 0 0 0 0 0 0 0 0 0 0 0 0 0 0 0 0 0 0 0 0
0 0 0 0 0 0 0 0 0 0 0 0 0 0 0 0 0 0 0 0 0 0 0 0 0 0 0 0 0 0 0 0 0 -0 0 0 0 0 0 0 0 0 0
0 0 0 0 0 0 0 0 0 0 0 0 0 0 0 0 0 0 0 0 0 0 0 0 0 0 0 -0 0 0 0 0 0 0 0 0 0 0 0 0 0 0 0
0 0 0 0 0 0 0 0 0 0 0 0 0 0 0 0 0 0 0 0 0 0 0 0 0 0 0 -0 -0 0 0 0 0 0 0 0 0 0 0 0 0 0 0
0 0 0 0 0 0 0 0 0 0 0 0 0 0 0 0 0 0 0 0 0 0 0 0 0 0 0 0 -0 -0 0 0 0 0 0 0 0 0 0 0 0 0 0
0 0 0 0 0 0 0 0 0 0 0 0 0 0 0 0 0 0 0 0 0 0 0 0 0 0 0 0 0 -0 0 0 0 0 0 0 0 0 0 0 0 0 0
0 0 0 0 0 0 0 0 0 0 0 0 0 0 0 0 0 0 0 0 0 0 0 0 0 0 0 0 0 0 0 0 0 0 0 0 0 0 0 0 0 0 0
0 0 0 0 0 0 0 0 0 0 0 0 0 0 0 0 0 0 0 0 0 0 0 0 0 0 0 0 0 0 0 0 0 0 0 0 0 0 0 0 0 0 0
0 0 0 0 0 0 0 0 0 0 0 0 0 0 0 0 0 0 0 0 0 0 0 0 0 0 0 0 0 0 0 0 0 0 0 0 0 0 0 0 0 0 0
Wind_Speed_500mb
34 29 25 20 21 20 17 15 12 8 5 5 7 7 9 10 11 11 10 10 11 10 8 9 9 8 9 9 10 11 12 12 12 13 13 13 12 13 13 13 14 13 14
30 29 25 23 22 19 17 14 13 11 8 8 7 8 11 12 11 9 9 8 7 6 9 6 7 10 12 12 12 13 14 13 13 13 14 12 10 11 11 14 14 11 12
32 29 24 21 19 18 13 9 8 11 12 8 7 8 10 11 11 12 10 9 10 9 8 7 10 10 12 12 13 14 15 16 16 15 13 11 8 11 9 11 13 13 11
35 30 24 20 18 15 14 12 11 9 9 9 11 12 12 13 13 14 14 14 14 14 14 17 18 16 16 17 19 20 21 21 20 18 15 13 11 11 20 18 17 15 15
34 28 23 21 19 16 13 12 10 8 8 10 9 9 10 10 11 12 15 17 19 19 20 22 22 21 20 20 22 22 21 22 21 20 21 19 16 17 20 24 24 21 19
37 30 27 25 22 20 19 17 15 13 11 9 8 7 8 9 11 11 13 14 15 18 20 21 22 23 25 26 27 27 27 26 24 22 20 19 21 22 24 26 26 24 22
40 35 31 28 25 23 20 17 14 12 10 8 6 4 4 5 8 10 12 13 13 14 14 15 17 19 22 24 25 26 28 29 30 28 26 22 23 23 25 30 30 27 24
40 38 36 34 32 30 21 14 11 9 7 5 4 2 1 4 6 7 8 8 8 8 9 10 11 11 13 14 16 18 22 27 28 28 29 26 23 24 25 30 31 27 27
41 41 40 40 37 29 22 19 16 14 11 9 3 3 5 6 5 4 4 5 7 8 10 12 14 16 16 16 17 17 17 20 21 25 26 26 27 27 19 23 32 30 27
45 46 45 42 39 33 29 25 21 18 17 13 8 4 6 7 5 5 6 7 9 11 13 15 17 20 21 21 22 21 20 18 16 17 17 19 26 28 25 27 31 31 32
51 52 52 49 45 40 36 31 28 25 21 16 10 7 8 10 9 9 11 13 14 17 18 20 22 23 25 27 28 27 26 25 22 19 18 19 23 31 40 44 46 48 47
53 57 57 55 52 47 43 39 34 29 24 19 14 13 12 12 14 14 15 15 16 17 19 23 26 28 31 31 30 29 30 29 28 26 23 23 24 25 28 34 39 44 44
53 57 59 59 57 54 51 45 41 36 32 28 23 21 20 20 19 18 17 16 17 19 22 24 26 29 30 32 30 30 29 28 28 26 25 26 28 30 30 32 33 35 34
61 60 61 63 63 60 57 53 47 41 36 33 31 29 25 24 22 21 20 21 19 20 22 25 29 33 35 33 31 29 30 30 31 31 29 28 29 28 30 30 32 33 35
67 65 66 66 68 66 64 59 54 49 45 41 39 36 31 28 25 25 24 23 21 23 25 27 32 34 34 32 29 30 28 28 28 30 33 33 33 32 34 34 34 34 34
70 69 67 69 69 70 68 64 59 54 50 48 45 41 36 32 28 27 26 23 23 23 26 30 34 36 36 35 31 31 31 31 31 30 31 32 34 35 35 35 34 37 38
75 71 70 71 68 69 69 67 64 59 57 52 48 45 41 36 32 29 28 26 24 24 28 31 34 36 36 37 37 36 36 35 35 36 32 29 29 29 33 35 35 35 36
75 75 71 73 72 68 67 70 67 63 58 53 50 47 43 39 35 32 31 29 27 26 30 34 36 36 36 39 40 37 37 37 37 32 31 28 25 24 22 21 23 29 31
77 77 79 78 77 71 66 70 68 64 60 56 53 51 48 46 41 36 33 31 26 27 30 31 33 36 39 40 42 43 43 41 32 35 29 19 25 33 32 31 31 27 26
80 78 80 80 78 73 69 71 69 66 64 60 58 56 54 50 46 41 38 34 28 29 31 32 32 32 37 44 49 51 47 37 39 24 12 42 40 34 28 40 40 38 42
85 83 85 84 81 78 78 79 80 78 72 68 64 62 57 54 49 44 40 34 29 30 33 34 33 33 34 42 52 54 47 41 25 12 43 47 35 42 44 43 40 40 46
89 87 85 84 81 80 79 80 81 77 74 66 64 63 59 56 54 50 45 37 32 33 35 36 36 35 35 40 45 47 37 38 17 54 31 46 39 26 40 47 56 60 60
89 90 86 82 79 81 78 78 80 73 70 72 76 71 66 63 61 57 50 42 33 34 36 37 38 35 34 35 35 27 16 12 71 59 68 37 52 56 59 58 64 65 67
86 84 79 76 76 79 80 81 85 88 91 91 82 73 68 67 65 62 54 45 37 35 39 38 37 36 36 36 36 31 32 38 24 39 54 72 62 72 80 75 70 68 71
80 78 75 72 75 78 79 83 88 91 89 82 76 70 70 68 67 65 58 51 43 37 41 39 37 37 40 40 39 40 42 42 44 43 64 56 83 86 84 79 92 82 78
71 71 73 76 78 79 81 84 87 91 88 82 80 77 76 72 70 69 64 56 47 39 41 40 39 40 43 43 42 40 40 43 50 49 70 90 91 91 93 98 87 82 85
Wind_Direction_500mb
194 194 196 201 189 190 187 190 201 195 208 237 261 284 303 306 322 336 341 347 3 9 4 353 346 336 339 347 345 339 337 334 336 340 346 349 360 357 358 359 1 5 360
190 191 193 195 189 184 189 181 190 198 214 241 276 287 291 302 319 332 333 336 335 351 18 354 309 317 327 330 325 329 329 329 330 338 341 348 11 348 7 345 343 349 349
191 191 195 195 187 183 189 210 210 194 224 250 265 284 289 310 316 319 324 314 305 306 301 310 293 305 310 311 307 305 307 315 319 325 337 328 339 342 339 328 342 335 320
195 186 192 192 191 188 185 191 198 197 212 232 259 273 280 275 274 280 284 283 276 281 285 295 306 309 307 302 302 307 313 318 318 317 314 312 314 310 298 303 320 316 309
198 190 187 187 189 190 188 186 190 196 203 224 242 252 267 274 275 277 275 273 275 280 283 284 287 288 287 288 292 296 299 300 304 309 311 306 302 305 300 309 317 302 303
196 198 193 194 193 184 178 175 174 175 187 196 220 242 267 285 286 278 271 272 278 282 286 291 291 290 289 288 284 284 284 285 288 295 298 297 301 301 297 300 301 307 302
199 200 202 200 195 188 183 181 176 178 188 190 212 231 263 274 287 299 302 303 300 297 295 293 293 294 294 294 294 292 289 283 279 279 283 293 296 296 297 299 302 302 299
207 205 207 206 200 195 195 196 193 184 183 184 163 136 13 346 342 339 340 339 341 343 341 342 336 330 323 322 314 303 294 287 282 276 271 270 270 270 282 291 292 289 289
212 212 212 208 206 206 203 205 198 187 180 174 177 337 350 340 335 346 347 352 356 359 353 346 341 337 332 327 321 320 311 307 304 288 275 265 262 259 263 279 285 288 286
217 219 219 215 213 212 211 212 206 195 189 190 205 264 328 328 331 343 354 358 355 348 344 334 331 328 325 323 319 319 318 314 307 300 295 269 257 252 241 242 262 285 281
221 224 222 219 218 215 216 212 208 202 199 208 230 264 288 295 300 312 318 326 332 335 335 332 330 323 317 315 314 313 313 312 310 309 302 288 272 261 256 254 256 264 270
225 224 227 223 222 220 219 216 214 212 213 220 234 258 274 272 270 277 286 298 312 318 321 323 321 320 319 315 314 314 311 310 310 309 306 300 291 281 275 274 271 265 259
235 229 230 227 226 223 223 222 218 216 218 223 230 241 248 256 260 261 268 283 293 303 311 314 317 318 317 312 309 307 305 305 303 300 301 300 300 299 295 292 291 290 288
236 236 234 229 228 227 225 225 223 223 223 225 230 234 242 251 258 263 271 280 288 292 295 304 314 318 317 316 311 306 306 311 312 312 309 304 298 295 293 291 291 293 295
238 237 235 232 230 227 227 224 223 222 223 226 230 234 238 242 251 257 263 270 277 284 295 304 307 310 312 314 313 310 308 310 312 311 309 305 299 296 292 289 286 283 282
242 238 236 234 231 229 228 225 225 224 225 226 229 232 234 237 248 256 261 267 272 281 292 300 307 316 321 320 320 320 321 322 318 314 309 304 298 291 288 283 281 280 280
245 241 237 235 233 230 227 226 226 225 226 227 228 231 231 234 242 249 254 259 267 281 294 303 311 319 321 320 322 326 327 327 323 320 316 313 306 299 290 288 290 289 285
246 240 236 236 234 233 229 226 225 225 226 228 228 230 231 235 239 241 246 251 261 282 294 302 313 321 323 321 322 324 326 330 330 326 321 317 317 313 306 302 298 300 294
250 240 233 234 233 232 229 227 226 226 228 229 231 232 232 233 232 236 244 250 262 282 291 302 313 318 322 322 323 327 333 332 332 326 329 3 352 333 317 313 316 312 306
245 243 235 232 230 230 230 226 225 226 228 229 230 232 231 231 228 232 241 247 261 278 289 298 305 316 324 324 328 328 332 332 330 334 346 329 325 324 312 312 310 310 314
237 234 231 230 227 226 224 221 222 224 226 228 229 230 230 229 229 233 238 244 262 280 289 294 299 311 322 325 327 324 332 336 338 342 323 317 329 302 305 306 306 302 301
232 230 229 230 229 227 228 226 227 228 229 232 233 233 232 232 232 234 237 242 258 276 286 291 296 307 319 327 331 335 336 341 332 319 324 312 314 321 311 304 302 299 299
225 226 228 230 230 229 229 226 226 224 227 227 229 231 231 232 233 234 235 239 250 272 282 283 289 299 310 317 323 327 334 309 320 321 322 318 311 309 306 303 300 299 303
226 226 231 231 229 227 228 225 226 226 226 230 234 236 235 234 234 234 235 239 249 269 279 279 283 294 302 307 311 313 311 303 303 307 311 311 311 309 310 307 304 305 307
223 226 231 230 226 227 228 229 228 230 232 236 237 235 233 234 234 235 236 239 245 261 275 274 281 291 298 302 304 309 308 305 302 292 297 304 306 309 310 310 312 311 313
223 227 227 224 223 224 226 230 231 233 233 232 233 232 233 234 234 235 236 239 243 254 270 273 279 285 292 297 300 303 302 302 306 303 303 309 310 313 310 309 309 314 316
Wind_Speed_850mb
34 29 25 20 21 20 17 15 12 8 5 5 7 7 9 10 11 11 10 10 11 10 8 9 9 8 9 9 10 11 12 12 12 13 13 13 12 13 13 13 14 13 14
30 29 25 23 22 19 17 14 13 11 8 8 7 8 11 12 11 9 9 8 7 6 9 6 7 10 12 12 12 13 14 13 13 13 14 12 10 11 11 14 14 11 12
32 29 24 21 19 18 13 9 8 11 12 8 7 8 10 11 11 12 10 9 10 9 8 7 10 10 12 12 13 14 15 16 16 15 13 11 8 11 9 11 13 13 11
35 30 24 20 18 15 14 12 11 9 9 9 11 12 12 13 13 14 14 14 14 14 14 17 18 16 16 17 19 20 21 21 20 18 15 13 11 11 20 18 17 15 15
34 28 23 21 19 16 13 12 10 8 8 10 9 9 10 10 11 12 15 17 19 19 20 22 22 21 20 20 22 22 21 22 21 20 21 19 16 17 20 24 24 21 19
37 30 27 25 22 20 19 17 15 13 11 9 8 7 8 9 11 11 13 14 15 18 20 21 22 23 25 26 27 27 27 26 24 22 20 19 21 22 24 26 26 24 22
40 35 31 28 25 23 20 17 14 12 10 8 6 4 4 5 8 10 12 13 13 14 14 15 17 19 22 24 25 26 28 29 30 28 26 22 23 23 25 30 30 27 24
40 38 36 34 32 30 21 14 11 9 7 5 4 2 1 4 6 7 8 8 8 8 9 10 11 11 13 14 16 18 22 27 28 28 29 26 23 24 25 30 31 27 27
41 41 40 40 37 29 22 19 16 14 11 9 3 3 5 6 5 4 4 5 7 8 10 12 14 16 16 16 17 17 17 20 21 25 26 26 27 27 19 23 32 30 27
45 46 45 42 39 33 29 25 21 18 17 13 8 4 6 7 5 5 6 7 9 11 13 15 17 20 21 21 22 21 20 18 16 17 17 19 26 28 25 27 31 31 32
51 52 52 49 45 40 36 31 28 25 21 16 10 7 8 10 9 9 11 13 14 17 18 20 22 23 25 27 28 27 26 25 22 19 18 19 23 31 40 44 46 48 47
53 57 57 55 52 47 43 39 34 29 24 19 14 13 12 12 14 14 15 15 16 17 19 23 26 28 31 31 30 29 30 29 28 26 23 23 24 25 28 34 39 44 44
53 57 59 59 57 54 51 45 41 36 32 28 23 21 20 20 19 18 17 16 17 19 22 24 26 29 30 32 30 30 29 28 28 26 25 26 28 30 30 32 33 35 34
61 60 61 63 63 60 57 53 47 41 36 33 31 29 25 24 22 21 20 21 19 20 22 25 29 33 35 33 31 29 30 30 31 31 29 28 29 28 30 30 32 33 35
67 65 66 66 68 66 64 59 54 49 45 41 39 36 31 28 25 25 24 23 21 23 25 27 32 34 34 32 29 30 28 28 28 30 33 33 33 32 34 34 34 34 34
70 69 67 69 69 70 68 64 59 54 50 48 45 41 36 32 28 27 26 23 23 23 26 30 34 36 36 35 31 31 31 31 31 30 31 32 34 35 35 35 34 37 38
75 71 70 71 68 69 69 67 64 59 57 52 48 45 41 36 32 29 28 26 24 24 28 31 34 36 36 37 37 36 36 35 35 36 32 29 29 29 33 35 35 35 36
75 75 71 73 72 68 67 70 67 63 58 53 50 47 43 39 35 32 31 29 27 26 30 34 36 36 36 39 40 37 37 37 37 32 31 28 25 24 22 21 23 29 31
77 77 79 78 77 71 66 70 68 64 60 56 53 51 48 46 41 36 33 31 26 27 30 31 33 36 39 40 42 43 43 41 32 35 29 19 25 33 32 31 31 27 26
80 78 80 80 78 73 69 71 69 66 64 60 58 56 54 50 46 41 38 34 28 29 31 32 32 32 37 44 49 51 47 37 39 24 12 42 40 34 28 40 40 38 42
85 83 85 84 81 78 78 79 80 78 72 68 64 62 57 54 49 44 40 34 29 30 33 34 33 33 34 42 52 54 47 41 25 12 43 47 35 42 44 43 40 40 46
89 87 85 84 81 80 79 80 81 77 74 66 64 63 59 56 54 50 45 37 32 33 35 36 36 35 35 40 45 47 37 38 17 54 31 46 39 26 40 47 56 60 60
89 90 86 82 79 81 78 78 80 73 70 72 76 71 66 63 61 57 50 42 33 34 36 37 38 35 34 35 35 27 16 12 71 59 68 37 52 56 59 58 64 65 67
86 84 79 76 76 79 80 81 85 88 91 91 82 73 68 67 65 62 54 45 37 35 39 38 37 36 36 36 36 31 32 38 24 39 54 72 62 72 80 75 70 68 71
80 78 75 72 75 78 79 83 88 91 89 82 76 70 70 68 67 65 58 51 43 37 41 39 37 37 40 40 39 40 42 42 44 43 64 56 83 86 84 79 92 82 78
71 71 73 76 78 79 81 84 87 91 88 82 80 77 76 72 70 69 64 56 47 39 41 40 39 40 43 43 42 40 40 43 50 49 70 90 91 91 93 98 87 82 85
Wind_Direction_850mb
194 194 196 201 189 190 187 190 201 195 208 237 261 284 303 306 322 336 341 347 3 9 4 353 346 336 339 347 345 339 337 334 336 340 346 349 360 357 358 359 1 5 360
190 191 193 195 189 184 189 181 190 198 214 241 276 287 291 302 319 332 333 336 335 351 18 354 309 317 327 330 325 329 329 329 330 338 341 348 11 348 7 345 343 349 349
191 191 195 195 187 183 189 210 210 194 224 250 265 284 289 310 316 319 324 314 305 306 301 310 293 305 310 311 307 305 307 315 319 325 337 328 339 342 339 328 342 335 320
195 186 192 192 191 188 185 191 198 197 212 232 259 273 280 275 274 280 284 283 276 281 285 295 306 309 307 302 302 307 313 318 318 317 314 312 314 310 298 303 320 316 309
198 190 187 187 189 190 188 186 190 196 203 224 242 252 267 274 275 277 275 273 275 280 283 284 287 288 287 288 292 296 299 300 304 309 311 306 302 305 300 309 317 302 303
196 198 193 194 193 184 178 175 174 175 187 196 220 242 267 285 286 278 271 272 278 282 286 291 291 290 289 288 284 284 284 285 288 295 298 297 301 301 297 300 301 307 302
199 200 202 200 195 188 183 181 176 178 188 190 212 231 263 274 287 299 302 303 300 297 295 293 293 294 294 294 294 292 289 283 279 279 283 293 296 296 297 299 302 302 299
207 205 207 206 200 195 195 196 193 184 183 184 163 136 13 346 342 339 340 339 341 343 341 342 336 330 323 322 314 303 294 287 282 276 271 270 270 270 282 291 292 289 289
212 212 212 208 206 206 203 205 198 187 180 174 177 337 350 340 335 346 347 352 356 359 353 346 341 337 332 327 321 320 311 307 304 288 275 265 262 259 263 279 285 288 286
217 219 219 215 213 212 211 212 206 195 189 190 205 264 328 328 331 343 354 358 355 348 344 334 331 328 325 323 319 319 318 314 307 300 295 269 257 252 241 242 262 285 281
221 224 222 219 218 215 216 212 208 202 199 208 230 264 288 295 300 312 318 326 332 335 335 332 330 323 317 315 314 313 313 312 310 309 302 288 272 261 256 254 256 264 270
225 224 227 223 222 220 219 216 214 212 213 220 234 258 274 272 270 277 286 298 312 318 321 323 321 320 319 315 314 314 311 310 310 309 306 300 291 281 275 274 271 265 259
235 229 230 227 226 223 223 222 218 216 218 223 230 241 248 256 260 261 268 283 293 303 311 314 317 318 317 312 309 307 305 305 303 300 301 300 300 299 295 292 291 290 288
236 236 234 229 228 227 225 225 223 223 223 225 230 234 242 251 258 263 271 280 288 292 295 304 314 318 317 316 311 306 306 311 312 312 309 304 298 295 293 291 291 293 295
238 237 235 232 230 227 227 224 223 222 223 226 230 234 238 242 251 257 263 270 277 284 295 304 307 310 312 314 313 310 308 310 312 311 309 305 299 296 292 289 286 283 282
242 238 236 234 231 229 228 225 225 224 225 226 229 232 234 237 248 256 261 267 272 281 292 300 307 316 321 320 320 320 321 322 318 314 309 304 298 291 288 283 281 280 280
245 241 237 235 233 230 227 226 226 225 226 227 228 231 231 234 242 249 254 259 267 281 294 303 311 319 321 320 322 326 327 327 323 320 316 313 306 299 290 288 290 289 285
246 240 236 236 234 233 229 226 225 225 226 228 228 230 231 235 239 241 246 251 261 282 294 302 313 321 323 321 322 324 326 330 330 326 321 317 317 313 306 302 298 300 294
250 240 233 234 233 232 229 227 226 226 228 229 231 232 232 233 232 236 244 250 262 282 291 302 313 318 322 322 323 327 333 332 332 326 329 3 352 333 317 313 316 312 306
245 243 235 232 230 230 230 226 225 226 228 229 230 232 231 231 228 232 241 247 261 278 289 298 305 316 324 324 328 328 332 332 330 334 346 329 325 324 312 312 310 310 314
237 234 231 230 227 226 224 221 222 224 226 228 229 230 230 229 229 233 238 244 262 280 289 294 299 311 322 325 327 324 332 336 338 342 323 317 329 302 305 306 306 302 301
232 230 229 230 229 227 228 226 227 228 229 232 233 233 232 232 232 234 237 242 258 276 286 291 296 307 319 327 331 335 336 341 332 319 324 312 314 321 311 304 302 299 299
225 226 228 230 230 229 229 226 226 224 227 227 229 231 231 232 233 234 235 239 250 272 282 283 289 299 310 317 323 327 334 309 320 321 322 318 311 309 306 303 300 299 303
226 226 231 231 229 227 228 225 226 226 226 230 234 236 235 234 234 234 235 239 249 269 279 279 283 294 302 307 311 313 311 303 303 307 311 311 311 309 310 307 304 305 307
223 226 231 230 226 227 228 229 228 230 232 236 237 235 233 234 234 235 236 239 245 261 275 274 281 291 298 302 304 309 308 305 302 292 297 304 306 309 310 310 312 311 313
223 227 227 224 223 224 226 230 231 233 233 232 233 232 233 234 234 235 236 239 243 254 270 273 279 285 292 297 300 303 302 302 306 303 303 309 310 313 310 309 309 314 316